Weather History for Joplin, MO

Change the Weather History Date:

Thursday, February 27, 2014

  Actual Average Record
Temperature  
Mean Temperature 32 °F 44 °F  
Max Temperature 45 °F 54 °F 76 °F (1976)
Min Temperature 19 °F 33 °F 11 °F (2002)
Degree Days  
Heating Degree Days 33 21  
Month to date heating degree days 889 683  
Since 1 July heating degree days 3821 3232  
Cooling Degree Days 0 0  
Month to date cooling degree days 0 0  
Year to date cooling degree days 0 0  
Moisture  
Dew Point 11 °F    
Average Humidity 44    
Maximum Humidity 62    
Minimum Humidity 25    
Precipitation  
Precipitation 0.00 in 0.09 in 0.88 in (1987)
Month to date precipitation 0.24 2.22  
Year to date precipitation 0.83 4.25  
Sea Level Pressure  
Sea Level Pressure 30.04 in    
Wind  
Wind Speed 6 mph (ESE)    
Max Wind Speed 14 mph    
Max Gust Speed 20 mph    
Visibility 10 miles    
Events      
T = Trace of Precipitation, MM = Missing Value Source: NWS Daily Summary

Daily Weather History Graph

Daily Weather History Graph

Search for Another Location

Airport:

Trip Planner

Search our weather history database for the weather conditions in past years. The results will help you decide how hot, cold, wet, or windy it might be!

Date:

Astronomy

Feb. 27, 2014 Rise Set
Actual Time 6:51 AM CST 6:10 PM CST
Civil Twilight 6:25 AM CST 6:36 PM CST
Nautical Twilight 5:55 AM CST 7:06 PM CST
Astronomical Twilight 5:25 AM CST 7:36 PM CST
Moon 5:23 AM CST (2/27) 4:37 PM CST (2/27)
Length of Visible Light 12h 10m
Length of Day
11h 18m
Waning Crescent, 4% of the Moon is Illuminated
Feb 27
Waning Crescent
Mar 1
New
Mar 8
First Quarter
Mar 16
Full
Mar 23
Last Quarter

Hourly Weather History & Observations

Time (CST) Temp. Windchill Dew Point Humidity Pressure Visibility Wind Dir Wind Speed Gust Speed Precip Events Conditions
12:53 AM 24.1 °F 15.2 °F 3.9 °F 42% 30.09 in 10.0 mi SW 8.1 mph - N/A   Clear
1:53 AM 25.0 °F 14.8 °F 6.1 °F 45% 30.09 in 10.0 mi SW 10.4 mph - N/A   Clear
2:53 AM 25.0 °F 14.8 °F 8.1 °F 49% 30.08 in 10.0 mi WSW 10.4 mph - N/A   Clear
3:53 AM 24.1 °F 15.2 °F 9.0 °F 53% 30.08 in 10.0 mi WSW 8.1 mph - N/A   Clear
4:53 AM 21.9 °F 11.7 °F 8.1 °F 55% 30.08 in 10.0 mi SW 9.2 mph - N/A   Clear
5:53 AM 19.9 °F 13.4 °F 9.0 °F 62% 30.11 in 10.0 mi SW 4.6 mph - N/A   Clear
6:53 AM 19.9 °F - 9.0 °F 62% 30.12 in 10.0 mi Calm Calm - N/A   Clear
7:53 AM 23.0 °F - 10.9 °F 60% 30.14 in 10.0 mi Calm Calm - N/A   Clear
8:53 AM 28.0 °F 21.7 °F 12.9 °F 53% 30.15 in 10.0 mi Variable 5.8 mph - N/A   Clear
9:53 AM 32.0 °F 23.0 °F 15.1 °F 50% 30.14 in 10.0 mi NE 11.5 mph - N/A   Clear
10:53 AM 34.0 °F 25.0 °F 14.0 °F 44% 30.13 in 10.0 mi East 12.7 mph - N/A   Clear
11:53 AM 37.9 °F 32.1 °F 12.9 °F 36% 30.12 in 10.0 mi ENE 8.1 mph - N/A   Clear
12:53 PM 37.9 °F 33.5 °F 12.0 °F 35% 30.09 in 10.0 mi Variable 5.8 mph - N/A   Clear
1:53 PM 41.0 °F 37.1 °F 12.0 °F 31% 30.04 in 10.0 mi Variable 5.8 mph - N/A   Clear
2:53 PM 43.0 °F 37.7 °F 12.0 °F 28% 30.00 in 10.0 mi ESE 9.2 mph - N/A   Clear
3:53 PM 44.1 °F 40.1 °F 10.9 °F 26% 29.98 in 10.0 mi ESE 6.9 mph - N/A   Clear
4:53 PM 44.1 °F 39.5 °F 12.0 °F 27% 29.96 in 10.0 mi East 8.1 mph - N/A   Clear
5:53 PM 42.1 °F 37.7 °F 10.9 °F 28% 29.94 in 10.0 mi East 6.9 mph - N/A   Clear
6:53 PM 37.9 °F 33.5 °F 12.0 °F 35% 29.95 in 10.0 mi ENE 5.8 mph - N/A   Clear
7:53 PM 35.1 °F 29.3 °F 12.0 °F 39% 29.95 in 10.0 mi ENE 6.9 mph - N/A   Clear
8:53 PM 34.0 °F 28.0 °F 12.0 °F 40% 29.94 in 10.0 mi East 6.9 mph - N/A   Clear
9:53 PM 32.0 °F 25.6 °F 10.9 °F 42% 29.94 in 10.0 mi ESE 6.9 mph - N/A   Clear
10:53 PM 32.0 °F 25.6 °F 12.0 °F 44% 29.91 in 10.0 mi ESE 6.9 mph - N/A   Clear
11:53 PM 30.0 °F 25.2 °F 12.9 °F 49% 29.91 in 10.0 mi East 4.6 mph - N/A   Clear